Regional Weather Roundup
Issued by NWS Upton, NY

Current Version | Previous Version | Text Only | Print | Product List | Glossary On
Versions: 1 2 3 4 5 6 7 8 9 10 11 12 13 14 15 16 17 18 19 20 21 22 23 24 25 26 27 28 29 30 31 32 33 34 35 36 37 38 39 40 41 42 43 44 45 46 47 48 49 50
000
ASUS41 KOKX 281005
RWROKX

REGIONAL WEATHER ROUNDUP
NATIONAL WEATHER SERVICE NEW YORK NY
600 AM EDT THU AUG 28 2014

NOTE: "FAIR" INDICATES FEW OR NO CLOUDS BELOW 12,000 FEET WITH NO
SIGNIFICANT WEATHER AND/OR OBSTRUCTIONS TO VISIBILITY.

NYZ071-072-176-178-NJZ106-104-281100-
NEW YORK CITY METRO AREA


CITY           SKY/WX    TMP DP  RH WIND       PRES   REMARKS
CENTRAL PARK   CLEAR     71  55  56 VRB5      29.90R
LAGUARDIA APRT PTCLDY    72  57  59 N12       29.86R
KENNEDY INTL   PTCLDY    73  64  73 N10       29.87R
NEWARK/LIBERTY PTCLDY    71  55  56 N10       29.88R
BRNX BOT. GARD   N/A     68  55  64 SW1       29.89R
TETERBORO      CLEAR     69  55  60 N7        29.86S
$$

NYZ177-179-078>081-281100-
LONG ISLAND NEW YORK

CITY           SKY/WX    TMP DP  RH WIND       PRES   REMARKS
FARMINGDALE    CLEAR     69  59  70 N8        29.86R
ISLIP          PTCLDY    68  59  73 NW9       29.84R
SHIRLEY        CLEAR     67  60  78 N12       29.85R
WESTHAMPTON    CLEAR     67  59  75 NW9       29.85R
MONTAUK POINT    N/A     69  62  78 NW7       29.83R
$$

NYZ052-065-067-281100-
HUDSON VALLEY

CITY           SKY/WX    TMP DP  RH WIND       PRES   REMARKS
WHITE PLAINS   CLEAR     64  57  78 N8        29.88R
NEWBURGH       CLEAR     61  57  88 CALM      29.91R
MONTGOMERY     CLEAR     62  53  72 NW5       29.90R
POUGHKEEPSIE   CLEAR     59  57  93 CALM      29.89R
ALBANY         MOCLDY    64  58  80 W9        29.91R
$$

NJZ001-105-106-008-010-013-015-019>022-104-281100-
NEW JERSEY

CITY           SKY/WX    TMP DP  RH WIND       PRES   REMARKS
NEWARK/LIBERTY PTCLDY    71  55  56 N10       29.88R
TETERBORO      CLEAR     69  55  60 N7        29.86S
CALDWELL       CLEAR     68  53  58 NW9       29.89R
MORRISTOWN     CLEAR     68  55  64 CALM      29.90R
SOMERVILLE     CLEAR     68  55  63 N5        29.89R
LINDEN         FAIR      74  59  59 N5        29.90R
SUSSEX         LGT RAIN  60  56  86 CALM      29.93R
ANDOVER          N/A     63  55  75 N7        29.93R
TRENTON        CLEAR     69  54  58 N9        29.90R
MILLVILLE      CLEAR     72  65  78 N8        29.88R
ATLANTIC CITY  CLEAR     70  66  87 N8        29.86R
WRIGHTSTOWN    MOCLDY    70  56  59 N6        29.87R
TOMS RIVER     CLOUDY    72  64  78 N13       29.87R
BELMAR         MOCLDY    72  55  56 NW9       29.87R
$$

PAZ047>061-062-071-281100-
EASTERN PENNSYLVANIA

CITY           SKY/WX    TMP DP  RH WIND       PRES   REMARKS
PHILADELPHIA   MOCLDY    75  59  57 N12       29.90R
ALLENTOWN      CLEAR     63  55  75 NW5       29.93R
SCRANTON       MOCLDY    62  54  74 VRB5      29.98R
$$

CTZ002-004>006-009-010-012-RIZ004-006-007-MAZ004-011-015-281100-
SOUTHERN NEW ENGLAND
 IN CT

CITY           SKY/WX    TMP DP  RH WIND       PRES   REMARKS
BRADLEY INTL   PTCLDY    66  58  75 N5        29.85R
HARTFORD       PTCLDY    65  58  78 N6        29.85R
DANBURY        CLEAR     63  57  81 N6        29.90R
WTRBRY/OXFORD  CLEAR     61  55  82 N8        29.90R
BRIDGEPORT     CLEAR     66  59  78 N9        29.85R
MERIDEN        CLEAR     66  57  72 N6        29.86R
NEW HAVEN      CLEAR     67  58  72 N5        29.85R
CHESTER        FAIR      64  59  82 N9        29.86R
GROTON         CLEAR     66  60  81 N10       29.81S
WILLIMANTIC    PTCLDY    63  60  90 CALM      29.85R

 IN RI

CITY           SKY/WX    TMP DP  RH WIND       PRES   REMARKS
PROVIDENCE     PTCLDY    69  62  78 N9        29.82R
BLOCK ISLAND   PTCLDY    66  61  82 NW8       29.81R
WESTERLY       CLEAR     67  61  81 N7        29.82R

 IN MA

CITY           SKY/WX    TMP DP  RH WIND       PRES   REMARKS
BOSTON         MOCLDY    71  59  65 NW10      29.81R
WORCESTER      CLEAR     64  58  80 N7        29.86S
WESTFIELD      CLEAR     65  58  78 N3        29.86R
PROVINCETOWN   PTCLDY    68  63  83 N9        29.78R
NANTUCKET      CLEAR     67  66  97 W7        29.77S
$$

ANZ330-335-338-340-345-350-353-355-281100-
COASTAL MARINE OBSERVATIONS


STATION/POSITION TIME  SKY/WX   TEMP    WIND        PRES    VSBY  WAVE
                                AIR SEA DIR/SP/G                  HT/PER
                 (UTC)          (F)     (DEG/KT/KT) (MB)    (MI)  (FT/S)
NY HARB ENTRANCE NOT AVBL
4S FIRE IS       NOT AVBL
23SW MTP         1000                                 N/A           7/13
HUDSON CANYON    1000            72 73  290/  6/  6 1009.1          8/13
EXECUTION ROCKS  1000            72 74  360/ 12/ 17   N/A
WESTERN LI SOUND 1000            70     330/ 10/ 14   N/A           1
CENTRAL LI SOUND 0900            69 74  320/ 14/ 16   N/A           1/ 2
EASTERN LI SOUND 0900            69 68  320/  8/ 10   N/A
ROBBINS REEF     1000            72     350/ 10/ 13   N/A
$$


>>>>>>>>>>>>>>>>>>>>>>>>>>>> KEY <<<<<<<<<<<<<<<<<<<<<<<<<<<
>                                                          <
>     SKY/WX - SKY CONDITION/PRESENT WEATHER               <
>     TMP    - TEMPERATURE IN FAHRENHEIT                   <
>     DP     - DEWPOINT IN FAHRENHEIT                      <
>     RH     - RELATIVE HUMIDITY IN PERCENT                <
>     WIND   - DIRECTION AND SPEED IN MPH                  <
>     PRES   - MEAN SEA LEVEL PRESSURE IN INCHES OF HG     <
>     WCI    - WIND CHILL INDEX                            <
>     VSB    - VISIBILITY IN MILES                         <
>     HX     - HEAT INDEX                                  <
>     TC     - TEMPERATURE IN CELSIUS                      <
>     VRB    - VARIABLE WIND DIRECTION                     <
>                                                          <
>>>>>>>>>>>>>>>>>>>>>>>>>>>> KEY <<<<<<<<<<<<<<<<<<<<<<<<<<<




USA.gov is the U.S. government's official web portal to all federal, state and local government web resources and services.